EW6786 Weather Reports


Display with metric or nautical units.
time (UTC)temp
F
wind
direction
speed
MPH
gust
MPH
rain 1hr
in
rain 24hr
in
rain mn
in
humidity
%
barometer
mb
20210411011539 41 202 16.0 20.0 0.00 0.00 0.00 60 1011.5
20210411010531 40 202 15.0 18.0 0.00 0.00 0.00 62 1011.3
20210411004533 40 202 15.0 19.0 0.00 0.00 0.00 62 1011.3
20210411003531 41 202 14.0 19.0 0.00 0.00 0.00 61 1011.4
20210411002544 41 202 13.0 18.0 0.00 0.00 0.00 61 1011.5
20210411001529 41 180 13.0 19.0 0.00 0.00 0.00 61 1011.6
20210411000539 41 202 12.0 24.0 0.00 0.00 0.00 61 1011.5
20210410235525 41 202 15.0 21.0 0.00 0.00 0.00 61 1011.9
20210410234521 40 180 12.0 18.0 0.00 0.00 0.00 63 1012.1
20210410233523 40 180 9.0 15.0 0.00 0.00 0.00 64 1012.6
20210410232523 40 180 10.0 15.0 0.00 0.00 0.00 64 1012.7
20210410231525 40 180 12.0 16.0 0.00 0.00 0.00 65 1013.1
20210410230547 40 180 10.0 15.0 0.00 0.00 0.00 65 1013.2
20210410225528 40 180 9.0 16.0 0.00 0.00 0.00 65 1013.1
20210410224556 41 180 10.0 15.0 0.00 0.00 0.00 64 1013.2
20210410223524 41 180 9.0 15.0 0.00 0.00 0.00 63 1013.3
20210410222841 41 180 9.0 14.0 0.00 0.00 0.00 63 1013.3
20210410221544 41 180 9.0 12.0 0.00 0.00 0.00 63 1013.4
20210410220518 41 180 9.0 16.0 0.00 0.00 0.00 63 1013.3
20210410215915 41 157 7.0 12.0 0.00 0.00 0.00 64 1013.2
20210410214525 41 180 8.0 13.0 0.00 0.00 0.00 64 1013.6
20210410213528 41 180 9.0 14.0 0.00 0.00 0.00 63 1013.5
20210410212857 42 180 9.0 14.0 0.00 0.00 0.00 62 1013.7
20210410211523 42 180 10.0 15.0 0.00 0.00 0.00 62 1013.4
20210410210524 42 180 8.0 13.0 0.00 0.00 0.00 61 1013.5
20210410210050 42 180 8.0 13.0 0.00 0.00 0.00 61 1013.6
20210410204542 42 180 8.0 12.0 0.00 0.00 0.00 61 1013.8
20210410203522 42 157 10.0 16.0 0.00 0.00 0.00 60 1013.8
20210410201622 43 157 9.0 13.0 0.00 0.00 0.00 58 1014.1
20210410200223 42 180 7.0 12.0 0.00 0.00 0.00 58 1014.3
20210410194557 43 157 8.0 14.0 0.00 0.00 0.00 56 1014.2
20210410193523 44 157 9.0 15.0 0.00 0.00 0.00 54 1014.3
20210410192848 44 157 10.0 18.0 0.00 0.00 0.00 54 1014.5
20210410191534 44 157 7.0 13.0 0.00 0.00 0.00 53 1014.6
20210410190547 44 157 8.0 12.0 0.00 0.00 0.00 50 1014.6
20210410185927 45 157 8.0 12.0 0.00 0.00 0.00 47 1014.7
20210410184541 45 157 7.0 10.0 0.00 0.00 0.00 46 1015.1
20210410183533 45 157 7.0 14.0 0.00 0.00 0.00 46 1015.2
20210410182835 46 157 9.0 13.0 0.00 0.00 0.00 44 1014.8
20210410181536 46 157 7.0 14.0 0.00 0.00 0.00 44 1015.0
20210410180526 46 157 7.0 11.0 0.00 0.00 0.00 43 1015.0
20210410175901 46 157 6.0 14.0 0.00 0.00 0.00 42 1015.1
20210410174521 46 157 7.0 13.0 0.00 0.00 0.00 42 1014.9
20210410173530 47 157 8.0 14.0 0.00 0.00 0.00 41 1014.9
20210410172825 47 180 7.0 13.0 0.00 0.00 0.00 42 1014.9
20210410171544 48 180 8.0 16.0 0.00 0.00 0.00 44 1014.8
20210410170530 48 180 8.0 20.0 0.00 0.00 0.00 43 1015.1
20210410165943 49 202 10.0 18.0 0.00 0.00 0.00 41 1015.0
20210410164521 50 180 10.0 19.0 0.00 0.00 0.00 39 1015.3
20210410163529 50 202 8.0 15.0 0.00 0.00 0.00 39 1015.3
20210410162900 50 202 7.0 18.0 0.00 0.00 0.00 42 1015.3
20210410161526 50 135 4.0 9.0 0.00 0.00 0.00 47 1015.2
20210410160520 49 0.0 2.0 0.00 0.00 0.00 53 1015.4
20210410155824 49 67 2.0 7.0 0.00 0.00 0.00 56 1015.1
20210410154522 48 22 1.0 4.0 0.00 0.00 0.00 59 1015.2
20210410153520 48 0.0 4.0 0.00 0.00 0.00 57 1015.2
20210410152816 48 315 2.0 6.0 0.00 0.00 0.00 57 1015.3
20210410151623 50 0.0 2.0 0.00 0.00 0.00 54 1015.7
20210410150627 50 0.0 3.0 0.00 0.00 0.00 54 1015.5
20210410150105 49 45 1.0 5.0 0.00 0.00 0.00 56 1015.2
20210410144530 50 22 1.0 4.0 0.00 0.00 0.00 55 1015.6
20210410143526 51 0.0 3.0 0.00 0.00 0.00 55 1016.0
20210410142829 51 0.0 1.0 0.00 0.00 0.00 54 1016.2
20210410141521 51 0.0 0.0 0.00 0.00 0.00 55 1016.1
20210410140519 50 0.0 3.0 0.00 0.00 0.00 54 1015.8
20210410140030 50 22 1.0 5.0 0.00 0.00 0.00 53 1015.9
20210410134543 49 22 2.0 5.0 0.00 0.00 0.00 53 1016.0
20210410133521 50 45 1.0 5.0 0.00 0.00 0.00 52 1016.4
20210410132852 49 22 2.0 7.0 0.00 0.00 0.00 54 1016.2
20210410131526 48 22 1.0 4.0 0.00 0.00 0.00 54 1016.4
20210410130519 48 22 1.0 4.0 0.00 0.00 0.00 52 1016.5
20210410124529 48 45 3.0 5.0 0.00 0.00 0.00 52 1016.4
20210410123225 47 22 5.0 10.0 0.00 0.00 0.00 51 1016.5
20210410121524 48 45 3.0 6.0 0.00 0.00 0.00 53 1016.5
20210410120518 47 22 3.0 9.0 0.00 0.00 0.00 51 1016.6
20210410115936 48 22 4.0 10.0 0.00 0.00 0.00 53 1017.0
20210410114525 49 45 2.0 9.0 0.00 0.00 0.00 55 1017.0
20210410113519 50 45 3.0 9.0 0.00 0.00 0.00 50 1017.0
20210410112800 51 45 2.0 5.0 0.00 0.00 0.00 52 1017.5
20210410111528 53 112 1.0 3.0 0.00 0.00 0.00 47 1017.8
20210410110520 54 0.0 2.0 0.00 0.00 0.00 40 1018.0
20210410105830 53 180 1.0 4.0 0.00 0.00 0.00 40 1017.8
20210410104515 51 180 2.0 7.0 0.00 0.00 0.00 33 1017.7
20210410103518 51 270 4.0 8.0 0.00 0.00 0.00 33 1017.6
20210410102837 51 202 5.0 11.0 0.00 0.00 0.00 35 1018.1
20210410101527 52 157 2.0 7.0 0.00 0.00 0.00 35 1017.9
20210410100530 50 202 4.0 7.0 0.00 0.00 0.00 34 1017.7
20210410095901 50 180 4.0 8.0 0.00 0.00 0.00 35 1017.7
20210410094536 51 157 2.0 7.0 0.00 0.00 0.00 34 1017.7
20210410093520 50 112 3.0 9.0 0.00 0.00 0.00 34 1017.8
20210410092702 50 180 3.0 6.0 0.00 0.00 0.00 34 1017.8
20210410091528 49 180 2.0 5.0 0.00 0.00 0.00 35 1017.7
20210410090520 48 180 2.0 6.0 0.00 0.00 0.00 37 1017.7
20210410085756 48 202 5.0 9.0 0.00 0.00 0.00 36 1017.7
20210410084519 48 202 4.0 9.0 0.00 0.00 0.00 39 1017.8
20210410083517 48 202 4.0 7.0 0.00 0.00 0.00 37 1017.7
20210410082707 48 225 3.0 6.0 0.00 0.00 0.00 38 1017.7
20210410081522 47 202 4.0 8.0 0.00 0.00 0.00 38 1017.6
20210410080522 47 180 4.0 9.0 0.00 0.00 0.00 40 1017.3
20210410075845 47 180 3.0 7.0 0.00 0.00 0.00 41 1017.3
20210410074517 46 202 4.0 7.0 0.00 0.00 0.00 40 1017.1
20210410073524 46 202 4.0 8.0 0.00 0.00 0.00 39 1017.1
20210410072730 46 202 4.0 7.0 0.00 0.00 0.00 39 1017.0
20210410071618 46 0.0 0.0 0.00 0.00 0.00 39 1017.1
20210410070528 46 0.0 1.0 0.00 0.00 0.00 38 1017.1
20210410065838 46 202 2.0 4.0 0.00 0.00 0.00 38 1017.1
20210410064531 46 0.0 0.0 0.00 0.00 0.00 39 1017.1
20210410063625 45 0.0 3.0 0.00 0.00 0.00 40 1017.1
20210410062959 45 0.0 0.0 0.00 0.00 0.00 40 1017.1
20210410061524 45 202 1.0 3.0 0.00 0.00 0.00 40 1016.6
20210410060520 45 202 3.0 5.0 0.00 0.00 0.00 40 1016.6
20210410055932 45 225 2.0 5.0 0.00 0.00 0.00 40 1016.8
20210410054535 44 202 4.0 6.0 0.00 0.00 0.00 41 1016.6
20210410053526 44 202 6.0 8.0 0.00 0.00 0.00 42 1016.6
20210410052915 43 202 7.0 8.0 0.00 0.00 0.00 41 1016.6
20210410051547 43 202 8.0 9.0 0.00 0.00 0.00 42 1016.8
20210410050526 43 202 8.0 9.0 0.00 0.00 0.00 42 1016.3
20210410045925 43 202 8.0 9.0 0.00 0.00 0.00 42 1016.6
20210410044531 44 202 3.0 6.0 0.00 0.00 0.00 40 1016.6
20210410043517 43 202 6.0 7.0 0.00 0.00 0.00 41 1016.5
20210410042759 42 202 8.0 10.0 0.00 0.00 0.00 42 1016.5
20210410041521 42 202 9.0 10.0 0.00 0.00 0.00 42 1016.5
20210410040526 43 202 7.0 8.0 0.00 0.00 0.00 42 1016.7
20210410035929 42 202 8.0 10.0 0.00 0.00 0.00 43 1016.7
20210410034521 42 202 9.0 10.0 0.00 0.00 0.00 44 1016.4
20210410033518 42 202 8.0 10.0 0.00 0.00 0.00 45 1016.4
20210410032915 41 202 8.0 11.0 0.00 0.00 0.00 44 1016.5
20210410031535 41 202 7.0 11.0 0.00 0.00 0.00 46 1016.5
20210410030750 40 202 6.0 9.0 0.00 0.00 0.00 48 1016.6
20210410030022 40 202 6.0 9.0 0.00 0.00 0.00 49 1016.6
20210410024527 40 270 2.0 7.0 0.00 0.00 0.00 47 1016.7
20210410023516 40 225 3.0 7.0 0.00 0.00 0.00 48 1017.0
20210410022801 41 270 4.0 9.0 0.00 0.00 0.00 46 1017.1
20210410021521 40 225 2.0 5.0 0.00 0.00 0.00 48 1017.2
20210410020526 41 247 3.0 6.0 0.00 0.00 0.00 46 1016.9
20210410015834 41 292 3.0 7.0 0.00 0.00 0.00 45 1017.2
20210410014524 41 247 2.0 7.0 0.00 0.00 0.00 47 1017.3
20210410013518 41 225 4.0 8.0 0.00 0.00 0.00 46 1016.9
20210410012755 42 202 8.0 15.0 0.00 0.00 0.00 44 1017.4